Back to catalog

STARLINK-36471

AliveCommunicationsVLEO
NORAD 67324·PAYLOAD·🇺🇸 United States

Launched Jan 4, 2026 from Cape Canaveral Space Force Station

Loading…

Next Passes (next 24 hours)

TLE

FreshSource: CelesTrak SupGP

Epoch: Sep 14, 2026, 15:03 UTC

1 67324C 26002V   26257.62756944  .00017363  00000+0  62911-3 0  2575
2 67324  43.0034 338.0735 0001301 276.9864 185.8180 15.27557671    12

Track STARLINK-36471 in real time with AllMySat

Download on the App Store